Hourly Data Report for September 01, 2017

All times are specified in Local Standard Time (LST). Add 1 hour to adjust for Daylight Saving Time where and when it is observed.

WOODSTOCK NEWBRIDGE
NEW BRUNSWICK

46°09'08.000" N
67°32'34.000" W
154.00 m
8105603
71606
EWD

Download Data

Hourly Data (September 2017)
Hourly Data Report for September 1, 2017
Temp Definition
°C
Dew Point Temp Definition
°C
Rel Hum Definition
%
Wind Dir Definition
10's deg

Wind Spd Definition
km/h
Visibility Definition
km
Stn Press Definition
kPa
Hmdx Definition


Wind Chill Definition


Weather Definition


TIME
00:00 8.1 7.6 97   0   99.03     LegendNANA
01:00 8.6 6.7 88 25 4   99.02     LegendNANA
02:00 8.3 6.5 88 27 3   99.00     LegendNANA
03:00 8.3 6.3 88 27 6   98.99     LegendNANA
04:00 7.4 6.0 91 22 5   99.00     LegendNANA
05:00 7.4 5.8 89 23 6   98.99     LegendNANA
06:00 7.4 5.5 88 24 7   99.02     LegendNANA
07:00 8.5 6.1 84 25 8   99.05     LegendNANA
08:00 10.3 5.8 74 24 10   99.04     LegendNANA
09:00 11.0 4.2 63 27 15   99.04     LegendNANA
10:00 11.9 4.3 60 26 13   99.01     LegendNANA
11:00 12.3 2.3 51 27 21   99.00     LegendNANA
12:00 10.3 4.3 66 27 22   99.07     LegendNANA
13:00 10.7 4.8 67 26 20   99.09     LegendNANA
14:00 9.2 6.2 81 26 21   99.13     LegendNANA
15:00 10.7 5.7 72 25 17   99.10     LegendNANA
16:00 9.7 6.6 81 28 12   99.18     LegendNANA
17:00 11.7 4.7 62 28 18   99.24     LegendNANA
18:00 10.3 5.7 73 29 16   99.36     LegendNANA
19:00 10.2 5.7 74 29 14   99.46     LegendNANA
20:00 9.7 5.7 76 29 12   99.54     LegendNANA
21:00 9.8 5.7 76 29 14   99.63     LegendNANA
22:00 9.5 5.4 76 29 12   99.68     LegendNANA
23:00 8.8 4.8 76 29 13   99.73     LegendNANA

Notes on Data Quality.

Legend

  • E = Estimated
  • M = Missing
  • NA = Not Available
  • ‡ = Partner data that is not subject to review by the National Climate Archives
Date modified: